Regional Weather Roundup
Issued by NWS Mt. Holly, NJ

Home | Current Version | Previous Version | Text Only | Print | Product List | Glossary On
Versions: 1 2 3 4 5 6 7 8 9 10 11 12 13 14 15 16 17 18 19 20 21 22 23 24 25 26 27 28
000
ASUS41 KPHI 200912
RWRPHI

REGIONAL WEATHER ROUNDUP
NATIONAL WEATHER SERVICE MOUNT HOLLY NJ
400 AM EST SAT JAN 20 2018

NOTE:  "FAIR" INDICATES FEW OR NO CLOUDS BELOW 12,000 FEET WITH NO
SIGNIFICANT WEATHER AND/OR OBSTRUCTIONS TO VISIBILITY.

 * = STATION DOES NOT REPORT PRECIPITATION (E.G. RAIN, SNOW, ETC.)
        OR FOG.

NJZ015>026-201000-
SOUTHERN NEW JERSEY

CITY           SKY/WX    TMP DP  RH WIND       PRES   REMARKS
POMONA         FAIR      35  19  52 SW7       29.97F WCI  29
WILDWOOD*      FAIR      34  19  54 SW9       29.99S WCI  27
MILLVILLE      FAIR      26  19  74 W3        29.97F
WRIGHTSTOWN    FAIR      31  17  55 W3        29.92F
MOUNT HOLLY    FAIR      32  17  54 SW6       29.95F WCI  26
TRENTON        FAIR      35  19  52 SW5       29.92F WCI  31

$$
NJZ001>014-201000-
NORTHERN NEW JERSEY

CITY           SKY/WX    TMP DP  RH WIND       PRES   REMARKS
SUSSEX         FAIR      28  19  69 SW7       29.85F WCI  21
ANDOVER*         N/A     30  20  66 S3        29.87F
MORRISTOWN     FAIR      30  21  69 SW5       29.89S WCI  25
NEWARK         FAIR      33  19  56 SW12      29.89F WCI  24
TETERBORO      FAIR      28  19  69 SW5       29.89S WCI  23
CALDWELL       FAIR      34  19  54 SW5       29.88F WCI  30
SOMERVILLE     FAIR      22  19  89 VRB3      29.89F
ALLAIRE*       FAIR      34  17  50 SW9       29.94S WCI  27
TOMS RIVER*    FAIR      30  18  60 SW6       29.94F WCI  24

$$
PAZ043-044-047-054-055-060>062-066>071-201000-
EASTERN PENNSYLVANIA

CITY           SKY/WX    TMP DP  RH WIND       PRES   REMARKS
PHILADELPHIA   FAIR      32  19  58 SW8       29.97F WCI  25
NORTH PHILA    FAIR      34  20  56 SW6       29.96F WCI  29
BLUE BELL*     FAIR      34  21  60 CALM      29.95S
DOYLESTOWN     FAIR      32  18  56 SW5       29.91F WCI  27
QUAKERTOWN*    FAIR      25  18  74 MISG      29.92F
PERKASIE*      FAIR      32  19  59 W5        29.92F WCI  27
POTTSTOWN      FAIR      26  17  68 CALM      29.94F
LANCASTER      FAIR      26  20  77 SW5       29.94F WCI  20
COATESVILLE    FAIR      39  21  48 VRB5G12   29.94F
READING        FAIR      26  20  77 CALM      29.93F
ALLENTOWN      FAIR      29  18  63 W7        29.91F WCI  22
MOUNT POCONO   FAIR      32  20  61 W22G29    29.79F WCI  19
HAZLETON       FAIR      34  21  60 W7        29.87F WCI  28
LEHIGHTON      FAIR      14  12  92 CALM      29.92F
WILKES BARRE   FAIR      37  22  54 SW10      29.84F WCI  30

$$
DEZALL-MDZ008-012-015-019-020-201000-
DELAWARE AND EASTERN MARYLAND

CITY           SKY/WX    TMP DP  RH WIND       PRES   REMARKS
WILMINGTON     FAIR      28  19  69 SW5       29.97F WCI  23
DOVER          FAIR      29  20  71 S5        29.98S WCI  24
GEORGETOWN     FAIR      31  17  56 SW6       30.00F WCI  25
EASTON         FAIR      32  17  53 CALM      30.03S
ABERDEEN       FAIR     N/A N/A N/A CALM      29.98F
OCEAN CITY     FAIR      35  20  54 SW8       30.01F WCI  29
WALLOPS ISLAND FAIR      39  15  37 SW7       30.03F WCI  34
CAMBRIDGE        N/A     27  23  86 SE6       30.01S WCI  20
SALISBURY      FAIR      30  17  58 SW5       30.01S WCI  25

$$
PAZ001-021-NYZ056-072-MDZ011-DCZ001-201000-
OTHER NEARBY LOCATIONS

CITY           SKY/WX    TMP DP  RH WIND       PRES   REMARKS
HARRISBURG     FAIR      23  19  85 CALM      29.94F
STATE COLLEGE  FAIR      36  25  64 SW12      29.89F WCI  28
WILLIAMSPORT   FAIR      26  21  81 E6        29.88F WCI  19
BINGHAMTON     FAIR      32  18  56 SW14      29.74F WCI  22
NEW YORK CITY  FAIR      39  19  44 W10G23    29.90F WCI  32
BALTIMORE      FAIR      28  18  66 SW3       29.97F
WASHINGTON DC  FAIR      30  21  69 SW5       30.00F WCI  25

$$




USA.gov is the U.S. government's official web portal to all federal, state and local government web resources and services.